Regional Weather Roundup
Issued by NWS Sterling, VA

Home | Current Version | Previous Version | Text Only | Print | Product List | Glossary Off
Versions: 1 2 3 4 5 6 7 8 9 10 11 12 13 14 15 16 17 18 19 20 21 22 23 24 25 26 27 28 29 30 31 32 33 34 35 36 37 38 39 40 41 42 43 44 45 46 47 48 49 50

000
ASUS41 KLWX 281810
RWRLWX

REGIONAL WEATHER ROUNDUP
NATIONAL WEATHER SERVICE BALTIMORE MD/WASHINGTON DC
200 PM EDT WED SEP 28 2016

Note: "FAIR" indicates few or no clouds below 12,000 feet
with no significant weather and/or obstructions to visibility.
 TC=TEMPERATURE CELSIUS

 * =Non NWS site. Station does not report precipitation (e.g. rain,
    snow, etc.), thunder, or fog.

DCZ001-MDZ009-015-VAZ040>042-051-053>054-281900-
WASHINGTON METRO

CITY           SKY/WX    TMP DP  RH WIND       PRES   REMARKS
WASHINGTON NAT LGT RAIN  68  67  96 E10       30.01F
DULLES         LGT RAIN  65  63  93 NE7       30.01F FOG
ANDREWS AFB    LGT RAIN  66  64  94 NE8       30.00F
FT BELVOIR     CLOUDY    68  66  94 VRB2      30.00S
QUANTICO       CLOUDY    69  65  86 E8        30.00F
COLLEGE PARK*  CLOUDY    66  63  88 NE5       30.01F
LEESBURG*      CLOUDY    66  64  94 NE7       30.03S THUNDER
MANASSAS*      CLOUDY    66  66 100 E3        30.01  FOG
GAITHERSBURG*  CLOUDY    64  61  88 CALM      30.07R THUNDER

$$

MDZ006>007-011-014-281900-
BALTIMORE METRO

CITY           SKY/WX    TMP DP  RH WIND       PRES   REMARKS
BWI AIRPORT    RAIN      67  63  87 E10       30.03R FOG
MD SCIENCE CTR   N/A     68  62  81 MISG      30.05R
MARTIN STATE   CLOUDY    66  66 100 NE8       30.04F
ANNAPOLIS      CLOUDY    69  66  90 E5        30.02R
FORT MEADE*    PTSUNNY   64  63  94 E8        30.04R

$$

MDZ012-015-019>023-281900-
MARYLAND EASTERN SHORE

CITY           SKY/WX    TMP DP  RH WIND       PRES   REMARKS
OCEAN CITY     CLOUDY    75  68  78 E16       30.01F
SALISBURY      LGT RAIN  71  66  84 E8        30.01R
BAY BRIDGE AP* CLOUDY    70  66  88 MISG      30.00F
CAMBRIDGE*     MOSUNNY   70  66  88 E10G16    29.99F
EASTON*        PTSUNNY   72  66  83 E12G20    30.04S

$$

MDZ017>025-281900-
SOUTHERN MARYLAND

CITY           SKY/WX    TMP DP  RH WIND       PRES   REMARKS
PATUXENT RIVER LGT RAIN  70  66  87 E20G25    29.99S
ST INIGOES     LGT RAIN  70  68  93 E12G20    29.98F
LEONARDTOWN*   CLOUDY    70  64  83 E9        30.00F

$$

MDZ003>005-281900-
NORTH CENTRAL MARYLAND

CITY           SKY/WX    TMP DP  RH WIND       PRES   REMARKS
FREDERICK*     CLOUDY    70  63  78 E9        30.06S
HAGERSTOWN APT CLOUDY    69  54  58 SE9       30.03F

$$

MDZ501>502-281900-
WESTERN MARYLAND

CITY           SKY/WX    TMP DP  RH WIND       PRES   REMARKS
OAKLAND*         N/A     54  52  94 SE15G25   30.02S FOG
CUMBERLAND*    CLOUDY    68  54  60 SE3       30.05F

$$

VAZ025>031-281900-
SHENANDOAH VALLEY

CITY           SKY/WX    TMP DP  RH WIND       PRES   REMARKS
WINCHESTER*    CLOUDY    64  59  82 E5        30.02R
FRONT ROYAL*   CLOUDY    63  61  94 CALM      30.00F
LURAY*         CLOUDY    68  64  88 N9        29.98F
NEW MARKET*    CLOUDY   N/A N/A N/A N3        29.99S
STAUNTON*      CLOUDY    68  62  79 CALM      30.00S
WAYNESBORO*    CLOUDY    67  63  86 SE6       29.99F

$$

WVZ021-048>050-054>055-281900-
EASTERN WEST VIRGINIA PANHANDLE

CITY           SKY/WX    TMP DP  RH WIND       PRES   REMARKS
MARTINSBURG    CLOUDY    67  58  72 VRB6      30.02F
PETERSBURG*    CLOUDY    65  53  65 CALM      30.00F

$$

VAZ036>039-050-281900-
CENTRAL FOOTHILLS

CITY           SKY/WX    TMP DP  RH WIND       PRES   REMARKS
CHARLOTTESVILL CLOUDY    68  63  84 NE10      29.98F HAZE
CULPEPER*      LGT RAIN  66  66  99 NE3       30.01S
ORANGE*        DRIZZLE   68  68 100 CALM      30.00F
GORDONSVILLE*  CLOUDY    64  64 100 NE5       29.98F FOG
WARRENTON*     LGT RAIN  66  61  84 NE5       29.99F

$$

VAZ055>057-281900-
NORTH AND CENTRAL PIEDMONT

CITY           SKY/WX    TMP DP  RH WIND       PRES   REMARKS
FREDERICKSBRG* CLOUDY    68  68 100 NE6       29.98F
STAFFORD*      CLOUDY    66  65  98 NE8       30.02F

$$

NCZ024-NYZ072-PAZ021-071-VAZ022-071-281900-
OTHER REGIONAL OBSERVATIONS

CITY           SKY/WX    TMP DP  RH WIND       PRES   REMARKS
NEW YORK CITY  CLOUDY    68  58  70 E12G18    30.14F
PHILADELPHIA   LGT RAIN  70  64  81 E12       30.07S
PITTSBURGH     PTSUNNY   72  52  49 SE14      29.93F
ROANOKE        CLOUDY    75  62  64 SE10      29.97F
RICHMOND       RAIN      74  69  85 SE7       29.95F
RALEIGH        PTSUNNY   85  68  56 SW5       29.94F

$$

ANZ530>537-281900-
MARINE OBSERVATIONS

STATION/POSITION TIME  TEMP    WIND        PRES
                       AIR SEA DIR/SP/G
                 (UTC) (F)     (DEG/KT/KT) (MB)
THOMAS PT LIGHT  1800   69 74   60/  7/  9 1017.4F
BALT KEY BRIDGE  1748   67      60/ 11/ 14 1016.3F
COVE POINT       1748   69     130/ 18/ 21 1016.3F
LEWISETTA        1748   70 73   90/ 18/ 21 1015.0F
SOLOMONS ISLAND  1748           80/ 19/ 24   N/A
PINEY POINT      1748          100/ 14/ 17   N/A

$$




USA.gov is the U.S. government's official web portal to all federal, state and local government web resources and services.